Temperature
19 20 21 21 22 22 21 19 18 17 16 16 15 15 15 15 15 15 15 15 15 16 16 17 17 17 18 18 18 17 16 15 14 14 13 13 12 12 11 11 11 11 11 11
20 21 21 21 21 20 19 18 17 15 14 15 15 15 14 13 14 13 14 14 14 14 15 15 15 16 16 17 17 17 16 15 14 14 13 13 12 12 11 11 11 11 11 11
18 20 20 18 18 17 15 15 15 14 13 13 13 13 12 12 12 12 13 13 13 13 13 14 14 14 15 16 16 16 16 16 15 14 13 13 12 12 11 11 11 11 11 11
17 19 19 18 18 16 14 13 13 13 12 12 12 13 13 13 13 12 12 12 12 12 12 12 13 13 14 14 15 15 16 15 15 14 13 13 12 12 11 11 11 11 11 11
16 17 18 18 16 16 15 11 11 11 11 11 11 12 13 13 11 11 11 11 11 11 11 11 11 12 12 13 13 14 14 15 15 14 13 13 12 12 12 11 11 11 11 11
16 17 16 15 14 15 15 11 10 10 10 10 10 10 10 11 11 11 11 11 11 10 10 10 10 10 11 11 12 12 12 13 14 14 14 13 13 12 12 11 11 11 11 11
16 16 15 11 12 15 14 11 9 9 9 9 9 9 10 10 10 10 11 11 11 10 10 10 10 10 10 10 10 10 11 12 13 13 13 13 13 12 12 11 11 11 11 11
14 15 14 10 11 11 10 10 10 9 9 9 9 9 9 10 10 11 11 11 10 10 10 10 10 9 9 9 9 10 10 11 12 12 13 13 13 12 12 11 11 11 11 11
12 11 9 10 10 10 10 9 9 9 9 9 9 9 10 10 10 11 11 11 11 10 10 10 10 9 9 9 9 9 9 10 10 11 12 13 13 12 12 11 11 11 11 11
10 10 9 10 10 10 10 9 10 9 9 9 9 10 10 10 10 11 11 11 10 10 10 10 10 9 9 9 8 8 8 9 9 10 11 12 12 12 12 11 11 11 11 11
9 9 9 10 10 10 10 10 10 10 10 10 10 10 10 10 10 10 10 10 10 10 10 9 9 9 9 8 8 8 8 8 9 9 10 11 12 12 12 12 12 11 11 11
8 9 8 9 11 11 10 10 10 10 10 10 10 10 10 9 9 9 9 9 9 9 9 9 9 9 9 8 8 8 8 8 8 9 9 11 12 12 12 12 12 11 12 12
10 10 10 10 10 10 10 10 10 9 9 9 9 9 9 9 9 9 8 8 8 8 8 8 8 8 8 8 8 7 7 7 8 8 9 10 11 12 11 11 11 11 11 11
10 10 10 10 10 10 10 9 9 9 9 9 9 8 8 8 8 8 8 7 7 7 7 7 7 7 7 7 7 7 7 7 7 8 8 9 10 11 11 11 11 11 10 11
10 10 10 10 10 9 9 9 9 9 9 8 8 8 8 8 7 7 7 7 6 6 6 6 6 6 7 7 7 7 7 7 7 8 8 9 10 11 11 11 11 11 11 10
10 10 10 9 9 9 9 9 9 9 8 8 8 8 7 7 7 7 6 6 5 5 5 5 5 5 6 6 6 6 7 7 7 7 8 9 10 10 11 11 11 11 11 11
10 9 9 9 9 9 9 9 9 8 8 8 8 7 7 6 6 6 5 5 5 4 4 4 4 5 5 5 6 6 6 7 7 7 8 8 9 10 10 11 11 11 11 11
9 9 9 9 9 9 9 8 8 8 8 8 7 6 6 6 5 5 4 4 4 4 4 4 4 4 4 5 5 6 6 6 7 7 7 8 9 10 10 11 11 11 11 11
9 9 9 9 9 8 8 8 8 7 7 7 6 6 5 5 4 4 4 3 3 3 3 4 3 3 4 4 5 5 6 6 7 7 7 8 9 10 10 10 11 11 11 11
9 9 9 8 8 8 8 7 7 7 6 6 5 5 4 4 4 4 3 3 3 3 3 3 3 3 4 4 5 5 6 6 7 7 8 8 9 10 10 10 11 11 11 11
9 9 8 8 8 7 7 7 6 6 5 5 4 4 4 3 3 3 3 3 4 4 3 3 3 4 4 5 5 6 6 6 7 7 8 9 9 10 10 11 11 11 11 12
9 8 8 7 7 7 6 6 5 5 4 4 4 3 3 3 3 4 4 4 4 4 4 4 4 4 4 5 5 6 6 6 7 7 8 9 10 10 11 11 11 11 12 12
8 7 7 6 6 6 5 5 5 4 4 3 3 3 3 3 4 4 4 4 4 4 4 4 4 5 5 5 6 6 6 7 7 8 8 9 10 11 11 11 12 12 12 12
7 7 6 6 5 5 4 4 4 3 3 3 3 3 3 4 4 4 5 5 5 5 5 5 5 5 6 6 6 6 7 7 7 8 9 10 11 11 11 12 12 12 12 12
6 6 5 5 4 4 4 3 3 3 3 3 3 4 4 4 4 5 5 5 5 5 5 6 6 6 6 6 7 7 7 7 8 8 9 10 11 11 12 12 12 12 12 12
6 5 5 4 4 3 3 2 2 2 2 3 3 4 4 5 5 5 5 5 6 6 6 6 7 7 7 7 7 7 7 8 8 9 10 11 11 12 12 12 12 12 12 12
5 4 4 3 3 3 2 2 2 2 3 3 3 4 4 5 5 6 6 6 6 6 7 7 7 7 7 7 8 8 8 8 9 9 10 11 11 12 12 12 12 12 12 12
Wind_Speed
8 8 7 9 12 13 9 7 6 5 7 4 6 7 9 11 12 14 15 15 15 12 11 10 9 9 7 7 7 7 8 8 8 7 6 5 3 2 2 2 3 4 4 5
4 6 8 8 10 6 6 6 8 10 6 6 5 7 11 12 13 13 13 13 13 13 13 13 12 12 11 9 8 7 9 9 8 8 7 6 5 4 2 1 1 2 3 3
4 6 5 4 6 5 8 8 5 5 3 7 8 9 7 8 11 11 12 12 12 12 12 12 13 13 13 11 8 8 9 9 9 10 9 8 7 5 4 3 1 1 2 4
2 3 2 3 6 11 11 11 10 7 6 8 9 7 1 6 9 11 13 14 14 13 12 11 11 13 14 13 9 8 9 10 10 11 10 9 8 7 6 4 3 3 4 5
4 4 5 4 4 3 1 5 9 7 9 11 11 9 3 6 8 8 9 10 10 11 10 11 12 12 14 14 11 8 8 10 11 12 12 11 10 9 6 5 5 4 5 6
4 4 6 2 10 13 2 3 5 7 9 11 11 9 7 12 14 14 13 11 11 11 10 11 12 11 11 13 13 12 11 10 10 12 13 14 13 10 7 6 6 6 6 6
3 5 1 6 12 10 3 4 6 7 9 10 6 8 12 15 16 14 14 14 13 12 11 10 11 10 11 12 12 13 13 12 10 12 14 14 13 9 8 8 7 7 7 6
3 3 3 9 7 5 2 5 7 9 11 12 13 15 17 16 15 15 16 15 13 11 11 10 9 9 10 11 12 13 13 13 11 10 13 13 13 11 11 10 9 9 7 7
2 1 1 1 1 4 5 7 9 10 14 15 16 18 19 18 17 17 16 15 13 12 12 10 9 8 10 11 11 12 13 13 12 10 12 12 14 14 12 11 10 9 9 8
4 2 2 4 4 6 8 11 13 15 17 17 19 20 20 19 17 16 16 15 13 12 12 12 10 10 10 10 9 10 12 12 11 10 10 11 12 13 13 13 12 11 10 9
3 3 6 6 7 10 12 14 16 17 18 18 19 20 20 18 16 15 14 13 11 11 12 14 12 11 11 10 8 8 10 11 11 10 10 11 12 13 15 14 15 13 12 11
2 5 5 9 11 14 15 16 18 19 18 17 16 17 17 16 14 13 13 12 12 12 12 13 12 11 11 9 8 8 8 9 9 10 8 9 11 9 12 13 18 19 17 14
6 8 9 12 14 15 15 17 18 16 15 16 14 13 14 13 11 11 12 13 13 13 14 13 11 11 11 9 8 8 8 8 8 10 8 8 10 11 9 6 12 18 19 19
9 9 10 12 13 14 15 15 14 13 13 14 13 13 13 13 13 13 13 13 13 13 13 12 11 11 11 10 9 9 9 9 8 8 7 7 9 11 12 12 10 7 10 16
10 10 11 13 12 13 13 13 14 14 14 15 13 14 15 16 16 15 14 14 13 13 13 12 12 12 11 11 11 11 9 7 6 7 8 8 9 11 11 12 12 9 5 5
10 11 11 12 14 15 14 15 16 14 15 16 15 16 17 17 17 16 15 14 15 15 14 14 13 12 12 12 12 10 9 12 9 7 8 8 9 11 11 12 12 11 11 9
10 11 12 14 14 16 15 15 15 16 16 17 17 18 18 18 17 17 17 16 16 17 16 15 15 13 12 12 11 9 8 9 10 8 8 8 9 12 13 13 13 12 12 13
11 12 13 15 17 18 18 17 17 18 18 19 18 17 18 19 19 20 20 19 18 18 17 16 15 14 13 12 10 8 8 7 6 6 7 7 8 11 12 13 14 14 11 11
13 14 14 16 16 16 16 17 18 17 17 16 17 18 19 20 20 21 20 20 20 20 17 14 17 15 12 13 13 8 8 8 7 7 7 7 8 10 12 13 14 13 13 13
13 15 16 16 16 16 17 17 17 17 15 16 18 20 21 21 22 22 20 19 17 16 16 15 13 12 11 12 15 8 8 8 8 7 7 6 8 10 13 14 14 14 13 13
15 16 17 17 16 16 17 17 16 16 16 17 19 22 23 23 22 21 19 18 16 15 14 14 11 9 9 9 12 8 8 8 7 7 7 6 8 11 12 14 14 14 14 13
14 15 16 16 17 17 16 15 15 17 19 20 23 24 24 24 23 20 18 15 15 15 12 9 8 10 11 10 7 7 8 8 7 6 6 6 8 10 12 13 14 14 13 13
14 13 13 15 16 17 17 16 16 18 20 23 25 25 24 22 19 17 16 13 12 13 10 8 10 13 13 8 6 7 7 7 6 6 6 7 8 10 12 13 13 13 13 13
12 12 14 14 15 15 17 19 20 20 22 23 22 24 23 20 16 13 12 14 15 14 9 10 12 12 10 6 5 6 6 5 5 5 5 6 7 9 11 12 12 12 13 14
12 12 12 15 15 15 16 19 21 22 22 20 23 24 20 16 16 15 13 12 12 10 7 8 10 10 6 5 5 5 5 4 4 3 3 4 6 8 9 10 11 11 12 13
12 12 12 13 13 13 15 17 18 18 19 20 21 20 19 17 16 13 10 9 8 7 5 5 5 5 4 4 5 5 4 3 2 2 3 4 5 6 8 9 11 11 11 12
11 10 11 13 13 14 15 17 18 19 20 20 22 21 20 17 15 13 10 7 5 5 4 4 4 4 4 4 4 3 2 2 2 1 2 3 4 4 6 9 8 8 9 10
Wind_Direction
224 248 272 291 298 297 288 260 207 139 110 35 16 39 38 33 30 28 22 17 12 4 355 345 331 312 288 259 226 200 187 189 196 193 186 187 194 222 297 340 360 10 29 33
279 272 289 301 320 328 14 32 99 100 68 350 1 42 42 32 27 22 12 4 359 357 353 346 339 327 311 285 251 211 197 200 195 185 185 189 195 202 227 283 334 29 37 48
262 290 336 351 348 76 67 32 68 88 41 352 6 24 39 28 21 10 356 350 348 346 343 341 336 331 323 302 273 227 209 203 192 187 189 193 193 195 207 219 200 109 77 84
213 346 256 193 88 107 99 61 48 60 27 7 344 319 70 45 13 350 344 340 337 334 331 332 335 336 333 327 299 251 224 209 196 191 193 190 188 196 203 199 184 160 134 118
158 211 248 152 52 360 206 81 28 22 5 349 331 314 266 13 351 325 319 318 317 315 315 321 329 333 339 336 325 292 256 228 206 194 191 188 191 195 195 186 184 172 154 143
169 208 242 292 336 326 111 105 18 0 342 338 345 339 309 326 327 320 315 312 310 313 316 320 323 328 337 337 335 324 300 272 231 200 192 192 194 190 183 181 183 168 159 156
249 250 243 341 324 337 346 319 323 321 317 316 305 272 285 299 301 298 298 297 298 301 304 305 310 322 326 327 328 320 315 301 262 215 199 194 190 182 176 176 173 170 163 161
346 295 310 354 14 45 295 284 291 297 294 291 285 285 288 289 289 290 292 290 289 288 288 290 296 305 313 314 314 319 319 311 287 235 207 196 184 182 178 174 173 173 166 160
72 104 173 324 174 227 248 273 280 281 284 285 285 284 285 285 284 285 284 282 280 277 280 282 283 284 292 298 307 319 322 316 307 267 218 191 184 183 179 178 180 180 175 172
98 107 255 266 260 261 261 265 274 277 279 280 279 280 282 283 282 281 279 277 275 274 276 279 277 274 271 280 293 307 317 316 312 289 232 201 187 184 182 185 186 184 183 180
81 333 321 294 279 276 281 283 284 285 284 283 284 286 286 287 287 286 284 280 275 272 274 276 274 272 273 274 281 292 309 315 316 302 249 208 194 190 187 191 190 186 188 183
281 262 256 269 273 282 289 292 295 296 297 295 294 294 296 298 297 294 292 289 285 279 276 276 275 272 273 271 269 275 293 308 312 308 269 218 195 189 193 188 188 186 184 180
235 249 250 267 279 285 290 293 297 298 299 302 303 301 301 300 298 295 293 292 289 286 283 280 277 274 273 269 263 261 269 288 303 299 276 224 192 182 176 177 184 185 184 183
260 272 281 281 285 290 294 296 298 300 301 300 298 299 300 299 297 296 294 291 290 289 287 282 278 276 274 270 263 259 259 276 294 291 281 237 198 187 181 176 173 178 194 192
286 283 279 287 294 297 297 299 302 302 299 296 292 293 294 294 292 291 289 289 288 286 284 282 281 280 279 274 267 261 257 264 280 293 283 246 206 187 181 178 175 165 143 165
292 296 296 299 300 301 301 301 301 295 294 295 295 293 291 288 288 289 288 288 286 284 281 278 276 276 277 274 270 264 256 262 273 287 285 250 205 186 179 175 170 168 170 161
311 307 304 305 305 303 301 299 297 297 297 298 298 297 297 296 295 293 291 287 283 281 278 275 274 272 271 271 267 261 254 257 267 278 274 247 207 187 179 175 173 174 174 172
293 291 293 296 301 305 305 304 303 302 301 301 305 307 305 302 299 298 296 294 290 284 278 274 272 271 266 268 265 256 252 248 245 259 265 246 208 188 179 176 176 172 167 169
293 292 294 296 299 301 304 305 306 304 305 309 310 307 304 302 300 299 298 295 292 288 283 274 269 269 266 267 271 257 250 247 245 250 257 239 207 189 180 177 176 173 168 167
296 298 301 304 306 307 308 309 309 310 310 310 309 309 307 305 304 302 299 293 287 282 281 276 271 266 262 266 270 253 242 243 243 247 249 230 198 186 181 178 175 173 171 173
307 309 311 314 314 312 312 313 314 313 312 313 313 311 309 307 305 303 299 297 290 283 278 272 268 263 258 258 262 249 239 238 238 241 237 216 194 184 180 176 175 175 174 176
313 315 318 319 319 319 319 316 315 315 316 316 315 313 311 309 307 304 294 288 287 283 279 272 264 258 256 261 255 242 235 235 234 233 229 208 190 181 177 174 172 175 176 177
316 317 318 320 321 320 319 319 319 319 318 318 316 313 311 309 307 303 302 296 293 285 278 268 260 259 264 265 250 238 235 232 231 232 220 200 184 175 172 170 170 172 175 178
321 321 321 321 323 323 323 324 324 322 319 316 314 313 312 312 310 302 293 292 290 285 278 268 263 262 263 250 237 234 233 227 231 229 208 185 174 168 166 166 167 169 173 176
321 322 324 328 330 327 323 323 324 322 320 320 317 317 317 314 312 310 305 301 298 291 282 270 261 259 252 232 226 228 226 217 217 208 182 163 156 160 161 162 166 170 173 179
322 326 326 323 322 322 324 325 324 322 322 322 322 322 321 320 318 316 312 307 301 295 287 276 259 250 237 231 230 226 219 208 207 192 165 149 143 151 159 163 163 168 173 179
325 327 327 327 327 326 326 325 323 322 322 322 323 322 323 325 327 329 325 319 313 304 292 280 262 239 224 220 219 209 193 175 163 134 128 135 138 148 161 163 163 163 168 175
Height
1517 1512 1508 1508 1504 1500 1502 1504 1513 1516 1519 1518 1514 1511 1508 1505 1502 1499 1497 1496 1494 1492 1490 1487 1484 1481 1478 1474 1471 1468 1466 1464 1463 1462 1460 1459 1457 1455 1454 1452 1450 1448 1446 1444
1514 1506 1505 1506 1503 1500 1503 1504 1509 1515 1521 1517 1514 1511 1508 1506 1503 1501 1499 1496 1494 1491 1488 1485 1481 1477 1473 1470 1467 1464 1462 1460 1459 1459 1458 1457 1456 1455 1454 1453 1452 1450 1449 1447
1521 1510 1509 1517 1511 1510 1516 1515 1514 1520 1523 1517 1514 1512 1510 1507 1504 1501 1499 1496 1492 1489 1485 1481 1477 1473 1468 1464 1461 1459 1457 1455 1455 1454 1454 1454 1454 1454 1453 1453 1453 1452 1451 1450
1521 1518 1523 1518 1509 1511 1517 1522 1520 1521 1521 1519 1516 1512 1508 1505 1503 1500 1497 1493 1490 1486 1481 1477 1473 1468 1463 1459 1455 1453 1451 1450 1449 1449 1450 1450 1450 1451 1452 1452 1452 1452 1452 1452
1523 1524 1516 1512 1512 1514 1516 1524 1525 1523 1521 1518 1514 1508 1505 1503 1501 1498 1495 1491 1487 1483 1478 1473 1468 1463 1458 1453 1450 1447 1445 1444 1443 1443 1444 1445 1446 1447 1449 1450 1451 1452 1452 1453
1519 1522 1526 1519 1515 1512 1513 1523 1526 1523 1520 1516 1512 1509 1503 1499 1495 1492 1489 1485 1481 1477 1473 1469 1464 1459 1454 1449 1445 1441 1439 1437 1437 1437 1438 1439 1440 1442 1445 1447 1449 1450 1452 1453
1519 1521 1518 1526 1517 1511 1519 1525 1524 1521 1518 1515 1512 1509 1502 1497 1493 1489 1485 1481 1476 1472 1468 1464 1460 1455 1450 1445 1440 1436 1433 1430 1429 1430 1431 1432 1435 1437 1439 1443 1446 1448 1450 1452
1523 1523 1526 1528 1522 1526 1529 1524 1521 1518 1515 1512 1507 1502 1497 1492 1487 1483 1478 1474 1470 1466 1462 1459 1455 1450 1445 1440 1435 1430 1426 1422 1420 1420 1423 1425 1427 1430 1434 1437 1441 1444 1447 1449
1528 1532 1532 1529 1528 1527 1525 1522 1518 1515 1510 1506 1500 1495 1490 1485 1480 1475 1471 1467 1463 1459 1455 1451 1449 1445 1439 1434 1429 1424 1419 1415 1413 1411 1414 1417 1419 1423 1426 1431 1435 1439 1442 1445
1529 1530 1530 1528 1527 1525 1522 1518 1514 1509 1505 1499 1493 1487 1482 1477 1472 1467 1463 1459 1455 1451 1447 1443 1441 1438 1433 1428 1423 1418 1413 1409 1405 1403 1405 1408 1411 1415 1418 1423 1428 1433 1437 1440
1532 1531 1529 1527 1524 1521 1517 1512 1508 1503 1499 1493 1487 1481 1475 1469 1464 1459 1455 1451 1447 1443 1439 1435 1432 1429 1426 1421 1417 1412 1407 1402 1398 1395 1395 1399 1403 1406 1410 1415 1420 1425 1430 1435
1535 1532 1530 1525 1520 1515 1511 1506 1502 1497 1491 1487 1482 1475 1469 1463 1458 1453 1448 1443 1439 1435 1431 1427 1423 1420 1417 1414 1409 1405 1400 1396 1392 1388 1387 1390 1394 1399 1404 1409 1415 1421 1426 1431
1531 1528 1524 1520 1515 1511 1507 1502 1497 1492 1486 1480 1475 1469 1463 1456 1451 1445 1440 1436 1431 1426 1422 1418 1414 1411 1408 1405 1401 1397 1394 1390 1385 1382 1379 1381 1386 1391 1396 1402 1409 1415 1421 1427
1527 1524 1520 1515 1511 1507 1502 1496 1491 1485 1480 1474 1468 1461 1455 1448 1442 1437 1431 1426 1421 1416 1412 1408 1404 1401 1399 1396 1393 1389 1386 1383 1379 1375 1372 1374 1379 1384 1389 1395 1401 1408 1415 1422
1525 1521 1517 1511 1506 1501 1496 1490 1483 1477 1470 1464 1458 1452 1446 1439 1432 1426 1421 1416 1410 1405 1401 1397 1393 1390 1388 1386 1383 1380 1378 1375 1371 1368 1367 1368 1372 1377 1383 1389 1395 1402 1409 1416
1520 1516 1512 1506 1500 1494 1489 1482 1476 1468 1461 1455 1448 1442 1435 1428 1421 1414 1409 1404 1398 1392 1388 1384 1381 1378 1377 1375 1373 1370 1369 1367 1365 1362 1361 1362 1366 1371 1377 1383 1390 1396 1403 1410
1516 1510 1505 1499 1494 1487 1481 1475 1468 1460 1452 1445 1438 1430 1423 1416 1408 1402 1396 1391 1385 1379 1375 1371 1367 1366 1365 1364 1362 1361 1360 1359 1357 1356 1355 1356 1360 1365 1371 1377 1384 1391 1398 1404
1513 1508 1502 1495 1488 1480 1473 1466 1459 1451 1443 1436 1427 1420 1412 1404 1396 1388 1382 1376 1370 1364 1360 1357 1355 1353 1352 1352 1352 1351 1351 1351 1350 1349 1349 1350 1354 1360 1366 1373 1379 1386 1393 1400
1507 1501 1495 1489 1482 1474 1466 1458 1450 1443 1434 1426 1418 1410 1401 1393 1385 1376 1369 1362 1356 1350 1346 1344 1342 1341 1340 1341 1342 1342 1343 1343 1343 1342 1343 1345 1349 1355 1362 1368 1375 1382 1388 1394
1500 1494 1488 1481 1474 1467 1459 1451 1442 1434 1426 1418 1409 1399 1390 1381 1373 1364 1356 1350 1344 1338 1334 1332 1330 1330 1330 1331 1333 1334 1335 1335 1336 1336 1337 1339 1344 1350 1357 1364 1371 1377 1384 1390
1494 1487 1480 1473 1466 1459 1452 1443 1435 1426 1418 1409 1400 1390 1379 1370 1361 1353 1345 1337 1332 1328 1324 1322 1321 1321 1322 1323 1325 1326 1328 1328 1329 1330 1332 1335 1340 1346 1353 1360 1367 1373 1380 1386
1488 1481 1474 1468 1460 1452 1444 1437 1429 1419 1410 1400 1390 1380 1369 1359 1350 1342 1336 1329 1323 1319 1316 1314 1314 1314 1315 1317 1318 1320 1321 1322 1323 1325 1327 1331 1336 1343 1350 1357 1363 1370 1376 1382
1483 1477 1470 1463 1455 1446 1438 1430 1422 1412 1402 1392 1381 1370 1360 1350 1342 1334 1325 1320 1316 1312 1310 1308 1308 1309 1311 1312 1313 1315 1316 1317 1319 1321 1324 1329 1334 1340 1347 1354 1360 1367 1373 1379
1479 1472 1465 1458 1450 1441 1432 1423 1414 1405 1395 1385 1374 1363 1352 1342 1333 1326 1320 1314 1310 1307 1305 1304 1305 1306 1307 1309 1310 1312 1313 1314 1316 1318 1322 1327 1333 1339 1346 1352 1358 1364 1370 1376
1475 1468 1460 1453 1445 1437 1428 1418 1408 1398 1388 1377 1366 1356 1346 1337 1328 1321 1315 1311 1307 1305 1303 1303 1304 1304 1306 1307 1308 1309 1310 1312 1314 1317 1321 1326 1332 1339 1345 1350 1356 1362 1368 1373
1471 1464 1457 1450 1443 1434 1425 1415 1404 1394 1383 1372 1361 1351 1341 1332 1325 1318 1313 1310 1307 1305 1304 1304 1304 1305 1305 1306 1307 1308 1309 1311 1313 1317 1321 1327 1333 1338 1344 1349 1355 1361 1366 1371
1467 1460 1453 1444 1436 1428 1420 1411 1401 1391 1381 1370 1359 1348 1339 1331 1323 1318 1313 1310 1308 1307 1306 1306 1305 1306 1306 1306 1307 1308 1310 1312 1315 1318 1323 1328 1333 1338 1344 1349 1354 1359 1364 1369